Location: W�rzburg
(49.7529°N, 9.8822°E)
Time: 22:35:33
(UTC+02:00)

ISS - Visible Passes

Search period start: 26 July 2017 00:00
Search period end: 05 August 2017 00:00
Orbit: 400 x 408 km, 51.6° (Epoch: 27 July)

Date Brightness Start Highest point End Pass type
(mag) Time Alt. Az. Time Alt. Az. Time Alt. Az.
26 Jul -3.3 00:51:46 10° W 00:55:00 59° N 00:56:42 25° ENE visible
26 Jul -1.7 02:28:18 10° WNW 02:29:15 18° WNW 02:29:15 18° WNW visible
26 Jul -3.9 22:22:53 10° WSW 22:26:05 63° SSE 22:29:19 10° ENE visible
26 Jul -3.3 23:59:24 10° W 00:02:38 60° N 00:05:20 14° ENE visible
27 Jul -2.5 01:36:00 10° WNW 01:37:55 33° WNW 01:37:55 33° WNW visible
27 Jul -3.5 23:07:00 10° W 23:10:15 68° N 23:13:30 10° ENE visible
28 Jul -3.6 00:43:40 10° WNW 00:46:55 68° N 00:46:58 68° NNE visible
28 Jul -3.8 22:14:39 10° WSW 22:17:54 84° NNW 22:21:10 10° ENE visible
28 Jul -3.4 23:51:18 10° WNW 23:54:32 60° N 23:56:08 26° ENE visible
29 Jul -1.6 01:27:50 10° WNW 01:28:45 17° WNW 01:28:45 17° WNW visible
29 Jul -3.3 22:58:54 10° W 23:02:08 59° N 23:05:21 10° E visible
30 Jul -3.2 00:35:28 10° WNW 00:37:58 49° WNW 00:37:58 49° WNW visible
30 Jul -3.4 22:06:29 10° W 22:09:43 65° N 22:12:58 10° ENE visible
30 Jul -3.7 23:43:06 10° WNW 23:46:22 73° NNE 23:47:12 45° E visible
31 Jul -1.0 01:19:42 10° W 01:19:49 11° W 01:19:49 11° W visible
31 Jul -3.4 22:50:43 10° WNW 22:53:58 62° N 22:56:28 16° E visible
01 Aug -2.4 00:27:15 10° WNW 00:29:05 29° W 00:29:05 29° W visible
01 Aug -3.3 21:58:17 10° W 22:01:31 59° N 22:04:45 10° E visible
01 Aug -4.0 23:34:50 10° WNW 23:38:06 80° SSW 23:38:22 71° SE visible
02 Aug -3.8 22:42:26 10° WNW 22:45:42 78° NNE 22:47:40 22° E visible
03 Aug -1.7 00:19:05 10° W 00:20:18 19° W 00:20:18 19° W visible
03 Aug -3.5 21:50:01 10° WNW 21:53:16 65° N 21:56:31 10° E visible
03 Aug -3.5 23:26:34 10° WNW 23:29:36 47° SW 23:29:36 47° SW visible
04 Aug -3.9 22:34:06 10° WNW 22:37:21 71° SSW 22:38:56 27° ESE visible
